[[{"header":{"parameterUnit":"m.s-1","parameterCategory":1,"la1":30.2992,"la2":30.254,"lo1":-89.0895,"lo2":-89.0443,"dy":0.0025,"dx":0.0025,"nx":19,"ny":19,"refTime":"2026-03-25T03:00:00:Z","depth":0,"parameterNumber":2,"parameterNumberName":"U-component_of_WINDS"},"data":[0,0,0,-1.5716,-1.5718,-1.582,-1.582,-1.5954,-1.5956,0,0,0,0,0,0,0,0,0,0,0,-1.5687,-1.5688,-1.5716,-1.5718,-1.582,-1.582,-1.5954,-1.5956,0,0,0,0,0,0,0,0,0,0,0,-1.5686,-1.5687,-1.5689,-1.5719,-1.582,-1.582,-1.5954,-1.5876,0,0,0,0,0,0,0,0,0,0,-1.5777,-1.575,-1.5687,-1.5689,-1.5719,-1.582,-1.582,-1.5872,-1.5881,-1.591,0,-1.5934,0,-1.5947,-1.5965,-1.5965,0,0,0,-1.5718,-1.5743,-1.577,-1.5689,-1.572,-1.582,-1.5774,-1.5877,-1.5887,-1.5921,-1.5936,-1.5941,-1.5949,-1.5966,-1.5966,-1.6127,-1.6128,0,0,-1.5713,-1.5706,-1.5763,-1.5776,-1.5758,-1.5771,-1.5777,-1.5883,-1.5899,-1.5936,-1.5944,-1.5951,-1.5967,-1.5968,-1.6126,-1.6127,0,0,0,-1.5697,-1.5702,-1.5726,-1.577,-1.5788,-1.5774,-1.5781,-1.5894,-1.5903,-1.5945,-1.5953,-1.5967,-1.5969,-1.6126,-1.6127,-1.6156,0,0,0,-1.5693,-1.5693,-1.5723,-1.572,-1.5786,-1.5842,-1.579,-1.5895,-1.5907,-1.5952,-1.5967,-1.597,-1.6125,-1.6126,-1.6154,-1.6172,0,0,0,-1.568,-1.5691,-1.5706,-1.572,-1.5763,-1.5841,-1.5855,-1.5898,-1.5912,-1.5965,-1.5971,-1.6124,-1.6126,-1.6151,-1.6168,-1.6212,0,0,0,-1.5664,-1.5732,-1.5706,-1.5785,-1.5762,-1.5858,-1.5854,-1.5927,-1.5976,-1.5968,-1.6125,-1.6127,-1.6151,-1.6166,-1.6209,-1.6247,-1.6262,0,0,-1.5746,-1.5742,-1.5788,-1.5768,-1.5866,-1.5843,-1.5946,-1.5999,-1.6011,-1.6088,-1.6092,-1.6155,-1.6168,-1.6211,-1.6349,-1.6361,0,0,0,-1.5812,-1.5846,-1.5873,-1.5919,-1.5959,-1.5996,-1.6032,-1.6052,-1.6117,-1.6049,-1.6182,-1.6191,-1.6216,-1.6235,-1.6245,-1.6268,-1.6135,-1.6135,-1.6134,-1.5919,-1.5929,-1.6007,-1.603,-1.6075,-1.6111,-1.6149,-1.6182,-1.6181,-1.6212,-1.6235,-1.6317,-1.6338,-1.6346,-1.6369,-1.6256,-1.6256,-1.6256,-1.6256,-1.6039,-1.6088,-1.6084,-1.6158,-1.617,-1.6233,-1.6272,-1.6269,-1.633,-1.6301,-1.6324,-1.6291,-1.6359,-1.638,-1.6259,-1.6258,-1.6258,-1.6258,-1.6258,-1.611,-1.6135,-1.6157,-1.6223,-1.6274,-1.6295,-1.6354,-1.6362,-1.6371,-1.6394,-1.642,-1.6419,-1.642,-1.6406,-1.6406,-1.6406,-1.6407,-1.6407,-1.6407,-1.6175,-1.6198,-1.6245,-1.6293,-1.6323,-1.6364,-1.6402,-1.6433,-1.6469,-1.6471,-1.6471,-1.6467,-1.6363,-1.6336,-1.6411,-1.6411,-1.641,-1.641,-1.6409,-1.6293,-1.6268,-1.6341,-1.6371,-1.6428,-1.6478,-1.6488,-1.6549,-1.6576,-1.6605,-1.6596,-1.6517,-1.6514,-1.6506,-1.6484,-1.6593,-1.6593,-1.6593,-1.6593,-1.6353,-1.6352,-1.6428,-1.6475,-1.6523,-1.6539,-1.6623,-1.6653,-1.6681,-1.6699,-1.6684,-1.6656,-1.6647,-1.6649,-1.6638,-1.6618,-1.6759,-1.6759,-1.6759,-1.6426,-1.643,-1.6499,-1.6523,-1.6569,-1.6608,-1.6687,-1.6743,-1.6769,-1.6766,-1.6712,-1.6705,-1.666,-1.6645,-1.664,-1.6622,-1.6585,0,0]},{"header":{"parameterUnit":"m.s-1","parameterCategory":1,"la1":30.2992,"la2":30.254,"lo1":-89.0895,"lo2":-89.0443,"dy":0.0025,"dx":0.0025,"nx":19,"ny":19,"refTime":"2026-03-25T03:00:00:Z","depth":0,"parameterNumber":3,"parameterNumberName":"V-component_of_WINDS"},"data":[0,0,0,-0.2332,-0.2333,-0.2345,-0.2345,-0.2355,-0.2355,0,0,0,0,0,0,0,0,0,0,0,-0.2326,-0.2326,-0.2332,-0.2333,-0.2345,-0.2345,-0.2355,-0.2355,0,0,0,0,0,0,0,0,0,0,0,-0.2326,-0.2326,-0.2326,-0.2333,-0.2345,-0.2345,-0.2355,-0.2347,0,0,0,0,0,0,0,0,0,0,-0.2337,-0.2328,-0.2326,-0.2326,-0.2333,-0.2345,-0.2345,-0.2347,-0.2348,-0.2347,0,-0.2346,0,-0.2351,-0.2355,-0.2355,0,0,0,-0.2335,-0.2327,-0.2333,-0.2326,-0.2333,-0.2345,-0.234,-0.2348,-0.2348,-0.2348,-0.2346,-0.2347,-0.2351,-0.2355,-0.2355,-0.2345,-0.2344,0,0,-0.2334,-0.2326,-0.2333,-0.2334,-0.2332,-0.2339,-0.234,-0.2348,-0.2346,-0.2346,-0.2347,-0.2351,-0.2355,-0.2355,-0.2345,-0.2344,0,0,0,-0.2331,-0.2326,-0.2332,-0.2333,-0.2336,-0.234,-0.2341,-0.2345,-0.2348,-0.2347,-0.2351,-0.2355,-0.2355,-0.2345,-0.2345,-0.233,0,0,0,-0.233,-0.2324,-0.2331,-0.2327,-0.2335,-0.2341,-0.2337,-0.2347,-0.2348,-0.2351,-0.2355,-0.2355,-0.2345,-0.2345,-0.2331,-0.2325,0,0,0,-0.2326,-0.2324,-0.2324,-0.2326,-0.2331,-0.2341,-0.2344,-0.2348,-0.2351,-0.2355,-0.2355,-0.2345,-0.2345,-0.2332,-0.2326,-0.232,0,0,0,-0.2319,-0.2311,-0.2324,-0.2317,-0.2331,-0.2332,-0.2344,-0.2345,-0.2347,-0.2355,-0.2345,-0.2345,-0.2332,-0.2327,-0.2321,-0.2313,-0.231,0,0,-0.2305,-0.2309,-0.2306,-0.2317,-0.2314,-0.2331,-0.2325,-0.2334,-0.2341,-0.2343,-0.2343,-0.2331,-0.2326,-0.232,-0.2292,-0.2289,0,0,0,-0.2298,-0.2296,-0.2296,-0.2298,-0.2305,-0.231,-0.2321,-0.2324,-0.2326,-0.2341,-0.2327,-0.2325,-0.2321,-0.2318,-0.2316,-0.2313,-0.2343,-0.2343,-0.2343,-0.2268,-0.2277,-0.2272,-0.2283,-0.2284,-0.2295,-0.2298,-0.2304,-0.2313,-0.231,-0.231,-0.2292,-0.2288,-0.2286,-0.2284,-0.2307,-0.2307,-0.2307,-0.2307,-0.2247,-0.2245,-0.2257,-0.2256,-0.2267,-0.2266,-0.2276,-0.2282,-0.2283,-0.2292,-0.229,-0.23,-0.2283,-0.2281,-0.2306,-0.2306,-0.2306,-0.2306,-0.2307,-0.2228,-0.2229,-0.2233,-0.2237,-0.2239,-0.225,-0.225,-0.2259,-0.2268,-0.2265,-0.2267,-0.2267,-0.2269,-0.2265,-0.2265,-0.2265,-0.2265,-0.2265,-0.2265,-0.2207,-0.2212,-0.2211,-0.2218,-0.222,-0.2224,-0.2235,-0.2238,-0.2243,-0.2249,-0.225,-0.2259,-0.2279,-0.2284,-0.2264,-0.2264,-0.2265,-0.2265,-0.2265,-0.2183,-0.219,-0.2188,-0.219,-0.2199,-0.22,-0.2212,-0.2216,-0.2219,-0.2219,-0.2229,-0.2242,-0.2247,-0.2249,-0.2254,-0.2227,-0.2227,-0.2227,-0.2227,-0.2166,-0.217,-0.217,-0.2174,-0.2178,-0.2188,-0.2186,-0.2194,-0.2204,-0.2206,-0.2212,-0.2218,-0.222,-0.2224,-0.2226,-0.223,-0.2198,-0.2198,-0.2198,-0.2152,-0.2157,-0.2153,-0.2163,-0.217,-0.2176,-0.2174,-0.2177,-0.2189,-0.2197,-0.2209,-0.221,-0.222,-0.2223,-0.2231,-0.2235,-0.2243,0,0]}]]